Wind_Speed
8 7 6 5 4 3 3 2 2 2 3 2 2 3 3 2 2 3 4 3 3 4 5 5 5 5 6 6 6 7 7 7 8 8 8 8 9 9 9 9 9 10 10 10 10 10 11 11 12
11 9 8 7 6 5 4 2 1 2 3 2 2 2 3 2 2 3 3 3 3 4 5 5 5 5 6 6 6 7 8 8 8 8 9 9 9 9 10 10 10 10 10 10 11 11 12 12 12
12 11 10 9 8 7 6 4 2 2 2 2 2 2 2 2 2 3 3 3 3 4 5 4 4 5 6 6 7 7 8 8 9 9 9 9 9 10 10 10 10 10 10 11 11 11 12 12 13
14 13 12 11 10 9 8 6 3 2 2 2 2 2 3 2 2 2 3 3 3 4 4 4 5 5 6 7 7 7 8 9 9 9 8 9 9 10 10 10 10 11 11 12 12 12 12 12 12
16 15 14 12 11 10 9 8 6 4 3 3 2 2 2 2 2 2 3 3 3 4 4 5 5 5 6 7 8 8 8 9 8 8 8 9 9 10 10 10 11 11 12 12 13 12 12 13 13
18 17 16 14 12 10 9 7 6 5 4 3 2 2 2 2 2 2 3 3 3 4 5 5 5 6 6 7 8 8 9 8 8 8 8 9 10 10 10 11 11 12 13 13 13 13 13 13 13
20 19 17 16 13 11 10 8 7 6 5 4 3 2 2 2 2 2 3 4 4 4 5 5 5 6 7 7 8 8 8 8 8 8 9 9 10 10 11 11 12 13 13 13 13 13 13 13 13
22 21 19 17 15 13 10 9 8 7 6 5 4 3 2 3 2 2 3 4 4 5 5 5 6 7 7 7 8 8 8 8 8 8 9 9 10 11 11 12 13 14 14 14 13 13 13 14 14
24 22 19 18 17 15 13 11 10 8 7 6 5 4 3 3 3 3 3 3 4 5 4 5 6 8 8 8 8 8 8 8 8 9 9 10 11 11 12 13 14 14 14 14 14 14 14 14 14
24 22 21 19 18 16 14 12 11 9 8 6 5 4 4 3 3 3 3 3 4 4 4 5 6 7 8 7 8 8 8 8 9 9 10 10 11 12 13 14 14 14 14 14 14 14 15 15 15
25 23 22 21 19 16 14 13 11 10 8 6 5 3 3 3 3 4 4 4 3 4 4 5 5 6 7 7 7 8 8 8 9 10 10 11 12 12 13 13 14 14 14 14 14 14 15 15 15
25 24 24 21 19 17 15 13 11 9 8 6 5 4 4 4 4 4 5 5 4 4 4 4 5 5 5 6 6 8 8 8 9 10 11 12 12 12 13 13 14 14 14 14 14 14 15 15 15
26 25 24 22 19 17 15 12 10 8 7 6 5 5 4 4 4 3 4 4 4 3 4 4 5 5 5 6 7 8 8 9 10 10 11 11 12 12 12 13 13 14 14 14 14 14 15 14 15
27 26 24 22 20 17 14 12 10 9 8 6 5 5 5 4 3 3 4 4 4 4 4 5 6 6 6 7 8 8 9 9 10 10 11 11 11 12 13 13 13 14 14 14 14 14 14 14 14
27 26 24 22 19 17 14 12 11 9 8 6 6 5 5 4 3 3 3 3 3 4 4 5 5 5 6 7 7 8 9 10 10 10 10 10 11 12 13 13 13 14 14 14 14 14 13 13 12
26 25 23 21 18 17 15 13 11 10 9 7 6 5 4 3 3 2 2 2 2 3 4 4 5 6 6 7 8 9 10 11 10 10 10 10 11 12 13 13 13 14 14 15 14 13 12 11 11
25 24 22 21 19 18 16 13 12 10 9 7 6 5 4 3 3 2 1 1 1 2 3 4 5 6 6 7 8 9 10 11 10 10 10 10 11 12 13 13 13 14 15 15 13 12 12 11 10
24 23 22 20 19 17 15 12 11 10 8 7 6 5 4 3 2 2 1 0 1 1 3 4 5 6 7 7 8 9 10 10 11 10 11 11 11 12 13 13 13 15 15 14 13 12 11 10 9
25 23 23 22 20 17 15 13 11 10 9 8 7 6 4 4 3 2 1 0 1 2 3 4 5 6 6 7 8 9 9 10 11 11 11 11 12 12 13 13 14 15 15 14 13 12 11 9 8
25 24 24 22 20 18 15 14 13 11 10 9 8 6 5 4 3 2 1 1 1 2 3 4 5 5 6 7 8 8 9 10 11 11 12 12 12 13 13 14 14 14 14 14 13 12 11 9 8
25 25 24 22 20 18 16 14 12 11 10 8 7 6 5 4 3 2 1 1 2 2 3 4 5 5 6 7 7 8 9 10 11 12 12 13 13 13 13 13 14 15 14 14 13 13 12 10 9
25 24 23 21 19 17 16 14 13 12 9 7 6 6 5 4 3 2 1 1 2 3 3 4 4 5 6 6 7 8 9 10 11 12 13 13 13 13 13 13 14 14 14 14 13 13 12 11 9
24 23 22 20 19 17 16 14 13 10 8 7 6 5 5 4 3 2 2 2 2 3 3 3 4 5 6 7 7 8 9 10 11 12 13 14 14 14 14 14 14 14 14 14 13 13 12 12 10
24 23 21 20 18 17 16 14 11 9 8 7 6 5 5 4 3 3 2 2 2 2 2 3 4 5 6 7 8 8 9 10 11 12 13 13 14 14 14 14 14 15 15 14 13 14 13 12 11
24 23 22 21 19 17 16 14 11 8 7 7 6 6 5 4 4 4 3 3 2 2 2 3 4 5 6 7 8 8 9 10 11 12 12 13 14 14 15 15 15 15 16 15 14 14 14 13 11
23 21 20 19 18 16 15 13 11 9 7 7 6 6 5 4 4 4 4 3 2 2 2 3 3 4 5 6 7 8 9 10 11 11 12 13 14 14 15 16 16 17 16 16 15 14 14 13 12
21 20 18 16 16 15 14 12 10 9 8 7 6 6 5 5 4 4 4 3 2 1 1 2 3 4 5 6 7 8 8 10 11 12 13 13 13 14 15 15 16 16 17 16 16 14 14 13 13
19 18 16 16 16 15 14 12 9 8 7 7 6 5 5 5 5 4 4 3 2 1 1 2 3 4 5 6 6 7 8 9 10 11 12 13 14 14 15 15 16 16 17 17 17 15 14 13 13
18 17 16 15 13 14 14 11 9 8 7 6 6 6 6 6 5 5 4 3 3 1 0 1 3 4 4 5 6 7 8 9 10 11 12 13 14 14 15 15 16 16 17 17 17 16 15 13 13
17 17 16 15 13 13 12 10 9 8 7 6 6 6 6 6 6 5 5 4 3 2 1 1 2 3 4 5 6 7 8 9 10 10 12 13 14 14 15 16 16 16 17 17 17 17 16 15 13
Wind_Direction
224 224 222 221 221 233 251 213 197 138 149 150 180 191 191 202 222 233 250 270 299 306 317 317 317 321 323 320 317 318 317 314 311 309 308 310 311 310 309 307 304 301 299 297 295 291 286 279 273
227 225 222 224 225 227 229 221 179 127 127 132 159 174 191 197 220 236 255 286 304 309 311 311 315 318 321 322 318 317 314 311 309 307 306 307 308 308 308 306 303 302 300 298 296 292 287 284 277
227 224 224 225 224 225 223 221 192 162 139 129 162 185 173 191 215 240 267 296 305 312 315 311 314 319 320 319 317 315 310 309 308 306 306 305 306 308 308 306 304 303 301 299 296 293 289 286 281
225 224 226 224 222 225 221 220 204 200 205 198 178 190 198 204 223 248 275 294 302 313 316 317 318 314 316 316 315 311 310 310 309 308 307 305 305 307 305 305 304 304 302 299 296 293 291 288 283
225 224 226 225 224 229 228 222 225 222 221 206 206 214 224 240 237 249 278 295 309 322 326 322 320 318 320 320 316 311 310 310 309 308 309 306 305 306 304 304 304 304 302 299 296 294 291 290 286
225 224 224 225 225 229 234 229 228 228 227 222 225 238 258 261 253 266 287 303 313 319 321 315 318 318 320 320 318 315 312 311 309 311 312 309 307 307 306 305 304 304 303 299 295 293 291 288 286
223 222 223 224 225 228 225 221 221 223 229 228 230 229 242 263 272 276 293 306 307 310 312 314 315 315 316 318 319 319 317 314 311 311 310 309 308 308 308 307 307 306 305 300 296 293 291 288 285
223 223 224 224 227 229 225 223 221 219 224 226 238 239 246 259 280 305 311 311 312 310 304 303 309 315 314 315 318 319 317 317 315 313 312 312 311 311 311 310 308 308 307 302 297 294 290 287 283
221 222 223 223 226 225 225 227 223 220 225 228 237 242 244 269 292 317 324 321 318 312 307 301 304 312 315 316 317 318 318 317 318 318 317 315 314 314 314 312 311 311 308 303 298 293 289 285 281
219 220 221 224 224 223 221 224 229 221 225 230 239 248 253 283 304 319 319 314 315 317 308 301 302 306 309 313 316 318 317 318 319 319 319 317 317 318 316 316 315 313 311 306 299 294 290 286 282
219 220 222 224 225 223 223 222 227 220 226 234 240 248 253 283 304 307 297 298 305 307 305 300 300 305 310 316 318 319 319 321 321 320 320 320 319 319 319 319 318 316 313 309 303 298 293 289 284
217 219 221 221 222 220 220 221 220 218 224 229 238 254 269 283 289 290 292 296 298 305 308 305 303 305 307 313 319 322 325 326 324 321 320 320 321 323 323 324 322 320 317 313 308 303 298 292 286
213 213 216 215 215 216 216 215 213 220 222 229 237 250 275 278 286 296 303 303 307 319 317 308 305 307 312 320 324 329 332 329 325 323 323 325 327 330 329 329 329 327 322 317 313 309 303 295 288
210 210 213 212 213 214 211 214 216 220 219 222 230 240 257 277 286 288 294 300 315 326 324 320 320 319 326 331 333 335 336 333 331 330 330 332 333 335 335 335 334 331 329 325 319 315 309 301 294
206 206 208 209 209 208 207 210 212 216 215 214 224 233 245 261 267 262 271 292 315 329 326 328 336 335 339 342 344 343 341 341 339 338 336 336 338 339 339 339 338 338 336 332 326 320 314 306 298
203 203 205 205 205 205 203 204 205 209 207 208 218 224 234 246 245 242 257 281 318 334 331 341 350 349 347 350 350 349 349 348 346 343 340 340 341 342 342 342 342 342 341 339 333 327 322 315 306
198 195 195 194 197 198 199 200 201 201 200 198 205 211 224 226 225 218 217 244 323 337 342 350 350 348 348 351 352 349 347 348 349 347 344 344 344 344 345 345 345 345 344 342 339 334 331 324 315
190 188 188 189 191 191 192 192 195 196 192 190 194 200 206 196 205 206 180 172 348 0 355 355 354 353 351 350 352 351 348 351 353 351 350 349 349 348 348 349 350 350 349 348 346 342 338 333 325
186 183 183 187 188 189 189 192 194 193 186 186 184 187 196 192 189 196 177 100 51 12 360 356 350 352 352 352 354 355 355 357 357 355 353 352 353 354 354 353 353 353 353 353 352 350 346 345 340
183 181 180 182 182 183 186 188 191 189 189 185 180 183 193 187 191 190 147 83 56 17 8 4 354 350 351 353 355 357 358 360 0 0 359 359 358 358 358 357 355 356 356 357 358 358 357 356 354
178 175 174 174 176 178 182 185 184 185 187 180 178 179 181 183 190 198 153 80 43 30 26 19 7 4 0 358 360 2 3 4 5 6 5 4 3 1 360 0 0 0 1 360 0 2 2 1 1
169 171 171 170 172 173 175 177 177 176 175 172 178 179 174 175 183 177 144 101 63 47 39 26 17 14 10 8 9 9 11 11 11 11 9 8 6 6 5 5 5 5 5 4 3 5 7 8 9
168 169 170 169 171 172 171 172 170 167 166 173 176 178 173 171 175 170 152 118 85 71 53 38 34 27 21 18 16 15 15 15 14 13 13 12 11 10 9 9 9 9 8 9 8 9 11 14 16
171 172 172 174 175 174 172 166 162 164 167 173 174 178 180 172 172 167 155 138 109 88 66 52 43 34 27 25 22 21 20 19 17 16 16 16 15 15 14 13 14 14 13 12 13 15 15 17 20
172 172 173 175 177 174 173 167 163 167 171 172 174 176 173 171 173 170 163 149 128 104 72 58 47 38 33 30 27 26 24 21 17 17 18 18 18 18 17 16 15 15 15 16 17 18 18 19 21
173 175 178 181 182 180 175 170 165 166 169 170 170 172 172 176 180 176 169 164 153 123 78 61 47 36 30 28 27 26 25 24 22 21 20 18 17 15 15 15 16 15 15 17 18 19 19 20 21
174 177 181 185 188 191 179 170 168 167 169 169 171 175 173 178 185 182 177 173 164 137 87 63 46 33 26 23 21 20 19 20 21 20 20 18 16 15 14 13 13 14 13 13 15 16 18 18 18
177 180 184 187 190 191 183 175 169 168 170 169 172 179 181 185 190 186 188 189 184 172 85 49 36 26 20 16 13 10 11 12 13 14 15 14 13 11 10 10 9 8 8 9 10 11 13 14 14
184 188 189 189 190 195 191 181 177 175 174 175 184 190 191 195 197 198 200 197 193 188 97 33 23 16 11 6 3 1 2 3 5 6 6 7 7 7 5 4 3 3 3 4 4 5 6 5 4
189 194 197 199 201 202 201 193 194 187 186 191 198 200 201 202 205 209 209 204 202 213 244 334 352 354 354 355 355 355 357 358 358 357 355 356 357 358 360 359 358 357 357 358 358 358 357 357 356
Height
5884 5885 5886 5887 5888 5887 5886 5886 5886 5886 5886 5887 5887 5887 5888 5890 5891 5892 5890 5889 5889 5888 5888 5887 5886 5886 5886 5885 5885 5884 5883 5882 5881 5880 5879 5878 5877 5875 5874 5873 5872 5871 5869 5868 5867 5866 5866 5865 5864
5883 5884 5885 5886 5886 5886 5886 5886 5886 5886 5887 5887 5887 5887 5888 5889 5889 5889 5888 5888 5888 5887 5887 5886 5886 5885 5885 5884 5883 5883 5882 5881 5880 5879 5877 5876 5875 5874 5873 5871 5870 5869 5868 5867 5866 5864 5863 5863 5862
5881 5882 5884 5884 5884 5885 5886 5885 5886 5886 5886 5886 5886 5887 5888 5888 5888 5887 5887 5887 5887 5886 5886 5885 5885 5884 5884 5883 5882 5881 5880 5879 5878 5877 5876 5875 5874 5872 5871 5870 5868 5867 5866 5865 5864 5862 5861 5860 5860
5879 5881 5882 5883 5883 5883 5884 5884 5885 5885 5886 5886 5886 5887 5887 5888 5887 5886 5886 5886 5886 5885 5885 5884 5884 5883 5882 5882 5881 5880 5879 5878 5876 5875 5874 5873 5872 5870 5869 5868 5867 5865 5864 5863 5861 5860 5859 5858 5858
5876 5878 5880 5880 5881 5882 5882 5883 5883 5884 5885 5885 5885 5886 5886 5887 5886 5885 5885 5885 5885 5884 5884 5883 5883 5882 5881 5880 5879 5878 5877 5876 5875 5874 5872 5871 5870 5869 5867 5866 5865 5863 5862 5860 5859 5858 5857 5856 5855
5874 5875 5877 5878 5879 5880 5881 5882 5883 5883 5884 5884 5885 5885 5885 5886 5885 5885 5884 5884 5884 5883 5883 5882 5882 5881 5880 5879 5878 5877 5876 5874 5873 5872 5870 5869 5868 5866 5865 5864 5862 5861 5860 5858 5857 5855 5854 5853 5852
5871 5873 5874 5876 5877 5878 5879 5880 5881 5882 5883 5884 5884 5884 5884 5884 5885 5884 5883 5883 5883 5883 5882 5881 5880 5880 5879 5878 5877 5875 5874 5873 5871 5870 5869 5867 5866 5864 5863 5861 5860 5858 5857 5855 5854 5853 5851 5851 5850
5867 5870 5871 5873 5875 5877 5877 5878 5879 5881 5882 5883 5883 5883 5883 5884 5884 5883 5883 5882 5882 5881 5880 5880 5879 5878 5877 5876 5875 5874 5872 5871 5869 5868 5867 5865 5864 5862 5860 5859 5857 5855 5854 5852 5851 5849 5848 5848 5847
5864 5868 5868 5871 5873 5875 5876 5877 5878 5879 5880 5881 5882 5882 5882 5882 5882 5882 5882 5882 5881 5880 5879 5878 5877 5877 5876 5874 5873 5872 5870 5869 5868 5866 5865 5863 5861 5860 5858 5856 5854 5852 5851 5849 5847 5846 5845 5844 5843
5860 5863 5866 5868 5871 5873 5874 5875 5877 5878 5879 5879 5880 5880 5881 5881 5881 5881 5881 5881 5880 5879 5878 5877 5876 5875 5874 5873 5872 5870 5869 5867 5866 5864 5863 5861 5859 5857 5855 5853 5851 5849 5847 5846 5844 5843 5841 5840 5840
5857 5860 5863 5865 5868 5870 5872 5874 5875 5876 5877 5878 5879 5879 5879 5880 5880 5880 5880 5880 5879 5879 5878 5877 5876 5874 5873 5872 5870 5869 5867 5866 5864 5862 5860 5859 5857 5855 5852 5850 5848 5846 5844 5842 5840 5839 5837 5836 5836
5853 5856 5859 5863 5866 5868 5870 5872 5873 5874 5876 5877 5878 5878 5879 5879 5879 5879 5879 5878 5878 5877 5877 5875 5874 5873 5872 5870 5869 5867 5865 5864 5862 5860 5858 5856 5854 5852 5850 5847 5845 5843 5841 5839 5837 5835 5833 5832 5831
5849 5852 5856 5859 5863 5865 5868 5870 5871 5873 5874 5875 5876 5877 5878 5878 5878 5878 5877 5877 5876 5876 5875 5874 5873 5872 5870 5869 5867 5866 5864 5862 5860 5858 5856 5854 5851 5849 5847 5845 5842 5840 5837 5835 5833 5831 5830 5828 5827
5845 5849 5853 5857 5860 5863 5866 5868 5870 5871 5873 5874 5875 5876 5877 5877 5876 5876 5876 5875 5875 5874 5873 5872 5871 5870 5869 5867 5866 5864 5862 5860 5858 5856 5854 5851 5849 5847 5845 5842 5840 5837 5834 5832 5830 5828 5826 5825 5823
5841 5846 5850 5854 5858 5861 5865 5867 5868 5870 5871 5873 5874 5874 5875 5875 5875 5875 5875 5874 5873 5872 5872 5871 5870 5869 5867 5866 5864 5863 5861 5859 5856 5854 5852 5850 5847 5845 5842 5840 5837 5835 5832 5829 5827 5825 5823 5821 5820
5839 5844 5848 5852 5856 5860 5864 5866 5867 5868 5870 5871 5872 5873 5873 5874 5874 5874 5874 5873 5872 5871 5871 5870 5869 5868 5866 5865 5863 5861 5859 5857 5855 5852 5850 5848 5845 5843 5840 5838 5835 5832 5830 5827 5824 5822 5820 5818 5816
5836 5842 5846 5851 5854 5858 5861 5863 5865 5866 5868 5870 5871 5871 5872 5872 5873 5873 5872 5872 5871 5871 5870 5869 5868 5866 5865 5864 5862 5860 5858 5856 5854 5851 5849 5846 5844 5841 5839 5836 5833 5831 5828 5825 5822 5820 5817 5815 5813
5835 5840 5844 5849 5852 5856 5859 5862 5864 5865 5867 5868 5869 5870 5870 5871 5872 5871 5871 5871 5871 5870 5869 5868 5867 5866 5864 5863 5861 5859 5857 5855 5853 5850 5848 5845 5843 5840 5838 5835 5832 5829 5826 5823 5821 5818 5815 5813 5811
5833 5838 5842 5847 5850 5854 5857 5860 5862 5863 5865 5867 5868 5869 5869 5870 5870 5870 5870 5870 5870 5869 5868 5867 5866 5865 5864 5862 5860 5859 5857 5855 5852 5850 5847 5844 5842 5839 5837 5834 5831 5828 5825 5822 5819 5817 5814 5812 5809
5831 5836 5840 5845 5848 5852 5855 5858 5860 5862 5863 5865 5866 5867 5868 5869 5869 5869 5869 5869 5869 5868 5867 5866 5865 5864 5863 5861 5860 5858 5856 5854 5852 5849 5846 5844 5841 5839 5836 5833 5831 5828 5824 5822 5819 5816 5813 5811 5808
5831 5836 5840 5844 5847 5851 5854 5857 5859 5860 5862 5863 5865 5866 5867 5868 5868 5868 5868 5868 5867 5867 5866 5866 5865 5864 5862 5861 5859 5858 5856 5854 5851 5849 5846 5844 5841 5838 5836 5833 5830 5827 5824 5821 5818 5815 5813 5810 5808
5830 5835 5839 5843 5847 5850 5854 5856 5857 5859 5860 5861 5863 5865 5866 5867 5867 5867 5867 5867 5867 5866 5866 5865 5864 5863 5862 5861 5859 5857 5855 5853 5851 5849 5846 5843 5841 5838 5835 5833 5830 5827 5824 5821 5818 5816 5813 5810 5808
5831 5835 5839 5842 5846 5849 5852 5855 5857 5857 5859 5861 5862 5863 5864 5865 5865 5866 5866 5866 5866 5866 5866 5865 5864 5863 5862 5861 5859 5857 5855 5854 5851 5849 5846 5844 5841 5838 5836 5833 5830 5827 5824 5821 5819 5816 5813 5811 5809
5831 5835 5839 5842 5845 5849 5852 5854 5856 5857 5859 5860 5861 5862 5863 5864 5864 5865 5865 5866 5866 5866 5866 5865 5864 5863 5862 5860 5859 5857 5856 5854 5852 5849 5847 5844 5841 5839 5836 5834 5831 5828 5825 5822 5819 5816 5814 5812 5809
5831 5835 5839 5841 5844 5848 5850 5853 5855 5856 5858 5859 5860 5861 5862 5863 5864 5864 5865 5865 5865 5865 5865 5864 5864 5863 5862 5860 5859 5858 5856 5854 5852 5850 5847 5845 5842 5840 5837 5834 5831 5828 5825 5822 5820 5817 5815 5812 5810
5831 5836 5840 5842 5844 5847 5849 5851 5854 5855 5856 5858 5859 5860 5861 5862 5863 5864 5864 5865 5865 5865 5864 5864 5863 5863 5862 5860 5859 5858 5856 5854 5852 5850 5848 5845 5843 5840 5838 5835 5832 5829 5826 5823 5820 5818 5815 5813 5811
5832 5835 5839 5842 5844 5846 5848 5850 5853 5854 5855 5857 5858 5859 5860 5861 5862 5863 5863 5864 5864 5864 5864 5863 5863 5862 5861 5860 5859 5858 5856 5854 5852 5850 5848 5846 5843 5841 5838 5836 5833 5830 5827 5824 5821 5819 5816 5814 5812
5834 5836 5839 5841 5842 5844 5847 5849 5852 5853 5854 5855 5857 5858 5859 5860 5861 5862 5862 5863 5863 5863 5863 5863 5862 5862 5861 5860 5859 5857 5856 5854 5852 5850 5848 5846 5844 5841 5838 5836 5833 5830 5828 5825 5822 5819 5817 5815 5813
5834 5836 5838 5840 5842 5844 5846 5851 5850 5851 5853 5854 5855 5856 5858 5859 5860 5861 5861 5862 5862 5862 5862 5862 5862 5861 5860 5859 5858 5857 5855 5854 5852 5850 5848 5846 5843 5841 5838 5836 5833 5830 5828 5825 5822 5820 5817 5815 5813
5832 5835 5837 5840 5841 5843 5845 5851 5849 5850 5851 5853 5854 5855 5856 5858 5859 5859 5860 5861 5861 5861 5862 5861 5861 5860 5859 5859 5857 5856 5855 5853 5851 5849 5847 5845 5843 5841 5838 5836 5833 5830 5827 5825 5822 5820 5817 5815 5813